Location: Tamazert
(32.6352°N, 5.2072°W)
Time: 17:04:00
(UTC+00:00)

Vanguard 3 - Pass Details

Date: 03 October 2022
Orbit: 509 x 3255 km, 33.3° (Epoch: 08 December)

Event Time Altitude Azimuth Distance (km) Brightness Sun altitude
Rises 15:54:27 0° 274° (W) 4,831 12.1 25.4°
Reaches altitude 10° 15:57:59 10° 261° (W) 4,233 12.5 24.7°
Maximum altitude 16:07:17 26° 211° (SSW) 3,962 11.7 22.9°
Drops below altitude 10° 16:20:09 10° 164° (SSE) 5,923 11.6 20.4°
Sets 16:26:33 0° 154° (SSE) 7,148 11.9 19.1°
